Regional Weather Roundup
Issued by NWS

Home | Current Version | Previous Version | Graphics & Text | Print | Product List | Glossary On
Versions: 1 2 3 4 5 6 7 8 9 10 11 12 13 14 15 16 17 18 19 20 21 22 23 24 25 26 27 28 29 30 31 32 33 34 35 36 37 38 39 40 41 42 43 44 45 46 47 48 49 50
000
ASUS43 KLOT 180402
RWRIL

ILLINOIS REGIONAL WEATHER ROUNDUP
NATIONAL WEATHER SERVICE CHICAGO/ROMEOVILLE IL
1100 PM CDT FRI APR 17 2015

NOTE: "FAIR" INDICATES FEW OR NO CLOUDS BELOW 12,000 FEET WITH NO
SIGNIFICANT WEATHER AND/OR OBSTRUCTIONS TO VISIBILITY.

* THESE STATIONS ARE NOT UNDER NWS QUALITY CONTROL. THEY ALSO MAY NOT
  REPORT WEATHER SUCH AS PRECIPITATION OR FOG.

ILZ001-002-007-009-015-016-024-180500-
NORTHWEST ILLINOIS

CITY           SKY/WX    TMP DP  RH WIND       PRES   REMARKS
MOLINE         CLEAR     57  48  72 CALM      30.00S
STERLING*      PTCLDY    55  48  76 CALM      30.01S
$$

ILZ003-004-008-010-011-017-018-180500-
NORTH CENTRAL ILLINOIS

CITY           SKY/WX    TMP DP  RH WIND       PRES   REMARKS
ROCKFORD       PTCLDY    63  48  58 S3        30.02F
$$

ILZ005-006-012>014-019>023-180500-
NORTHEAST ILLINOIS

CITY           SKY/WX    TMP DP  RH WIND       PRES   REMARKS
CHICAGO-OHARE  MOCLDY    63  46  54 CALM      30.00F
CHICAGO-MIDWAY MOCLDY    67  45  45 CALM      30.01S
AURORA         MOCLDY    56  48  74 N5        30.01F
WAUKEGAN       FAIR      48  43  82 CALM      30.00F HAZE
DUPAGE AIRPORT MOCLDY    59  50  72 S3        30.00F
WHEELING       CLOUDY    62  46  55 CALM      30.01F
NORTHERLY ISL    N/A     58  43  57 S1          N/A
$$

LMZ740>746-180500-
SOUTHERN LAKE MICHIGAN

STATION/POSITION SKY/WX   TEMP    WIND        PRES    VSBY  WAVE
                          AIR SEA DIR/SP/G                  HT/PER
                          (F)     (DEG/KT/KT) (MB)    (MI)  (FT/S)
HARRISON CRIB              60     180/  9/ 10   N/A
BURNHAM HARBOR             59     170/  2/  2   N/A
CALUMET HARBOR             59      CALM  /  1   N/A
BURNS HARBOR               69     160/  3/  9 1016.9R
MICHIGAN CITY              67     120/  3/  4   N/A
MICHIGAN CITY 6N           62 47                N/A           0
$$

ILZ025>027-034>036-040-047-049-050-058-095>099-180500-
WEST-CENTRAL ILLINOIS

CITY           SKY/WX    TMP DP  RH WIND       PRES   REMARKS
QUINCY         PTCLDY    65  52  62 SE6       30.01S
$$

ILZ028>032-037-038-041>044-048-051>054-059>061-180500-
CENTRAL ILLINOIS

CITY           SKY/WX    TMP DP  RH WIND       PRES   REMARKS
DECATUR        CLEAR     65  52  62 S5        30.03S
PEORIA         CLOUDY    69  53  56 S7        30.01S
SPRINGFIELD    CLEAR     63  53  70 S7        30.02S
TAYLORVILLE    NOT AVBL
$$

ILZ033-039-045-046-055>057-062-063-180500-
EAST-CENTRAL ILLINOIS

CITY           SKY/WX    TMP DP  RH WIND       PRES   REMARKS
CHAMPAIGN      CLEAR     58  50  75 E5        30.03F
MATTOON        CLEAR     62  50  64 CALM      30.02F
$$

ILZ079-100>102-180500-
SOUTHWEST ILLINOIS

CITY           SKY/WX    TMP DP  RH WIND       PRES   REMARKS
BELLEVILLE     PTCLDY    62  60  96 CALM      30.01S
CAHOKIA*       CLEAR     62  58  86 SE3       30.01F
$$

ILZ064>066-069>071-074>076-080>082-084>086-088>090-092>094-180500-
SOUTH-CENTRAL ILLINOIS

CITY           SKY/WX    TMP DP  RH WIND       PRES   REMARKS
CARBONDALE     MOCLDY    63  60  90 CALM      30.03R
MT. VERNON     CLEAR     55  50  82 CALM      30.05S
$$

ILZ067-068-072-073-078-083-087-091-180500-
SOUTHEAST ILLINOIS

CITY           SKY/WX    TMP DP  RH WIND       PRES   REMARKS
LAWRENCEVILLE  CLEAR     58  55  90 CALM      30.03S
$$

ABBREVIATIONS USED IN REMARKS
   TC - TEMPERATURE IN CELSIUS
  WCI - WIND CHILL INDEX
   HX - HEAT INDEX
  VSB - VISIBILITY
$$




USA.gov is the U.S. government's official web portal to all federal, state and local government web resources and services.